When you browse on this site, cookies collect data to enhance your experience and personalize the content and advertising you see.
Visit our Privacy Policy to learn more. By continuing to use the site, you agree to this use of cookies and data.
  • In Spain
  • List of Countries
  • For 7 days
  • Water Temperature
  • Weather Map
  • Weather Widgets
  • user-avatar
    Login

    Hourly Weather Los Angeles

    Today, 23 January, Thursday

    Time Temperature Precipitation Wind Pressure Humidity
    00:00 +15°C° 0 mm 1 mps 747 mmHg 87%
    01:00 +13°C° 0 mm 0 mps 747 mmHg 93%
    02:00 +13°C° 0 mm 0 mps 747 mmHg 94%
    03:00 +12°C° 0 mm 0 mps 747 mmHg 94%
    04:00 +12°C° 0 mm 0 mps 748 mmHg 94%
    05:00 +14°C° 0 mm 0 mps 748 mmHg 85%
    06:00 +16°C° 0 mm 0 mps 749 mmHg 76%
    07:00 +18°C° 0 mm 0 mps 749 mmHg 67%
    08:00 +24°C° 0 mm 1 mps 749 mmHg 55%
    09:00 +27°C° 0 mm 1 mps 750 mmHg 42%
    10:00 +31°C° 0 mm 1 mps 750 mmHg 29%
    11:00 +34°C° 0 mm 2 mps 750 mmHg 24%
    12:00 +35°C° 0 mm 2 mps 750 mmHg 19%
    13:00 +37°C° 0 mm 2 mps 749 mmHg 13%
    14:00 +37°C° 0 mm 3 mps 749 mmHg 13%
    15:00 +37°C° 0 mm 3 mps 749 mmHg 13%
    16:00 +37°C° 0 mm 3 mps 749 mmHg 13%
    17:00 +34°C° 0 mm 4 mps 749 mmHg 18%
    18:00 +30°C° 0 mm 4 mps 750 mmHg 23%
    19:00 +27°C° 0 mm 5 mps 750 mmHg 28%
    20:00 +25°C° 0 mm 5 mps 750 mmHg 36%
    21:00 +22°C° 0 mm 5 mps 750 mmHg 45%
    22:00 +19°C° 0 mm 4 mps 750 mmHg 53%
    23:00 +18°C° 0 mm 4 mps 749 mmHg 58%

    Tomorrow, 24 January, Friday

    Time Temperature Precipitation Wind Pressure Humidity
    00:00 +17°C° 0 mm 4 mps 749 mmHg 63%
    01:00 +15°C° 0 mm 4 mps 749 mmHg 68%
    02:00 +14°C° 0 mm 3 mps 749 mmHg 70%
    03:00 +14°C° 0 mm 3 mps 749 mmHg 72%
    04:00 +13°C° 0 mm 3 mps 749 mmHg 74%
    05:00 +16°C° 0 mm 3 mps 749 mmHg 68%
    06:00 +17°C° 0 mm 3 mps 749 mmHg 61%
    07:00 +19°C° 0 mm 3 mps 750 mmHg 54%
    08:00 +22°C° 0 mm 4 mps 750 mmHg 43%
    09:00 +27°C° 0 mm 4 mps 750 mmHg 31%
    10:00 +30°C° 0 mm 5 mps 749 mmHg 20%
    11:00 +32°C° 0 mm 5 mps 749 mmHg 16%
    12:00 +34°C° 0 mm 5 mps 749 mmHg 13%
    13:00 +36°C° 0 mm 5 mps 749 mmHg 9%
    14:00 +35°C° 0 mm 5 mps 749 mmHg 10%
    15:00 +35°C° 0 mm 5 mps 749 mmHg 10%
    16:00 +35°C° 0 mm 5 mps 749 mmHg 10%
    17:00 +32°C° 0 mm 5 mps 749 mmHg 14%
    18:00 +28°C° 0 mm 5 mps 750 mmHg 18%
    19:00 +25°C° 0 mm 5 mps 750 mmHg 22%
    20:00 +22°C° 0 mm 5 mps 750 mmHg 29%
    21:00 +19°C° 0 mm 5 mps 750 mmHg 36%
    22:00 +17°C° 0 mm 4 mps 750 mmHg 43%
    23:00 +15°C° 0 mm 4 mps 750 mmHg 49%

    Day after tomorrow, 25 January, Saturday

    Time Temperature Precipitation Wind Pressure Humidity
    00:00 +14°C° 0 mm 4 mps 750 mmHg 55%
    01:00 +13°C° 0 mm 4 mps 750 mmHg 60%
    02:00 +14°C° 0 mm 4 mps 750 mmHg 61%
    03:00 +14°C° 0 mm 4 mps 750 mmHg 61%
    04:00 +14°C° 0 mm 4 mps 749 mmHg 62%
    05:00 +15°C° 0 mm 4 mps 750 mmHg 57%
    06:00 +17°C° 0 mm 5 mps 750 mmHg 52%
    07:00 +19°C° 0 mm 5 mps 750 mmHg 47%
    08:00 +22°C° 0 mm 5 mps 749 mmHg 42%
    09:00 +26°C° 0 mm 5 mps 749 mmHg 36%
    10:00 +29°C° 0 mm 6 mps 749 mmHg 31%
    11:00 +32°C° 0 mm 6 mps 749 mmHg 29%
    12:00 +33°C° 0 mm 6 mps 749 mmHg 27%
    13:00 +34°C° 0 mm 6 mps 748 mmHg 24%
    14:00 +34°C° 0 mm 6 mps 748 mmHg 24%
    15:00 +34°C° 0 mm 5 mps 748 mmHg 24%
    16:00 +34°C° 0 mm 5 mps 748 mmHg 24%
    17:00 +32°C° 0 mm 5 mps 748 mmHg 30%
    18:00 +28°C° 0 mm 5 mps 749 mmHg 37%
    19:00 +26°C° 0 mm 5 mps 749 mmHg 43%
    20:00 +23°C° 0 mm 5 mps 749 mmHg 50%
    21:00 +21°C° 0 mm 5 mps 750 mmHg 57%
    22:00 +19°C° 0 mm 4 mps 750 mmHg 65%
    23:00 +19°C° 0 mm 4 mps 750 mmHg 69%

    26 January, Sunday

    Time Temperature Precipitation Wind Pressure Humidity
    00:00 +18°C° 0 mm 4 mps 749 mmHg 74%
    01:00 +17°C° 0 mm 4 mps 749 mmHg 79%
    02:00 +17°C° 0 mm 4 mps 749 mmHg 81%
    03:00 +15°C° 0 mm 4 mps 749 mmHg 83%
    04:00 +15°C° 0 mm 4 mps 749 mmHg 85%
    05:00 +17°C° 0 mm 4 mps 749 mmHg 79%
    06:00 +18°C° 0 mm 4 mps 749 mmHg 73%
    07:00 +20°C° 0 mm 4 mps 749 mmHg 67%
    08:00 +23°C° 0 mm 4 mps 749 mmHg 58%
    09:00 +27°C° 0 mm 5 mps 749 mmHg 48%
    10:00 +29°C° 0 mm 5 mps 749 mmHg 39%
    11:00 +32°C° 0 mm 5 mps 749 mmHg 36%
    12:00 +34°C° 0 mm 5 mps 749 mmHg 32%
    13:00 +36°C° 0 mm 5 mps 749 mmHg 29%
    14:00 +35°C° 0 mm 5 mps 749 mmHg 30%
    15:00 +35°C° 0 mm 5 mps 749 mmHg 31%
    16:00 +35°C° 0 mm 5 mps 749 mmHg 32%
    17:00 +32°C° 0 mm 5 mps 749 mmHg 38%
    18:00 +29°C° 0 mm 5 mps 749 mmHg 44%
    19:00 +27°C° 0 mm 4 mps 750 mmHg 50%
    20:00 +25°C° 0 mm 4 mps 750 mmHg 56%
    21:00 +22°C° 0 mm 4 mps 750 mmHg 62%
    22:00 +20°C° 0 mm 4 mps 750 mmHg 69%
    23:00 +20°C° 0 mm 4 mps 750 mmHg 68%

    27 January, Monday

    Time Temperature Precipitation Wind Pressure Humidity
    00:00 +19°C° 0 mm 4 mps 750 mmHg 68%
    01:00 +18°C° 0 mm 4 mps 749 mmHg 68%
    02:00 +17°C° 0 mm 3 mps 749 mmHg 69%
    03:00 +17°C° 0 mm 3 mps 749 mmHg 70%
    04:00 +16°C° 0 mm 3 mps 749 mmHg 71%
    05:00 +17°C° 0 mm 3 mps 749 mmHg 68%
    06:00 +18°C° 0 mm 3 mps 749 mmHg 65%
    07:00 +20°C° 0 mm 4 mps 749 mmHg 62%
    08:00 +23°C° 0 mm 4 mps 748 mmHg 50%
    09:00 +27°C° 0 mm 4 mps 748 mmHg 39%
    10:00 +30°C° 0 mm 4 mps 748 mmHg 27%
    11:00 +33°C° 0 mm 4 mps 748 mmHg 21%
    12:00 +35°C° 0 mm 4 mps 748 mmHg 16%
    13:00 +37°C° 0 mm 4 mps 747 mmHg 11%
    14:00 +37°C° 0 mm 4 mps 747 mmHg 10%
    15:00 +37°C° 0 mm 4 mps 747 mmHg 10%
    16:00 +37°C° 0 mm 4 mps 747 mmHg 10%
    17:00 +34°C° 0 mm 4 mps 748 mmHg 12%
    18:00 +30°C° 0 mm 4 mps 748 mmHg 14%
    19:00 +28°C° 0 mm 5 mps 748 mmHg 16%
    20:00 +25°C° 0 mm 5 mps 748 mmHg 19%
    21:00 +22°C° 0 mm 4 mps 749 mmHg 23%
    22:00 +19°C° 0 mm 4 mps 749 mmHg 26%
    23:00 +18°C° 0 mm 4 mps 749 mmHg 31%

    28 January, Tuesday

    Time Temperature Precipitation Wind Pressure Humidity
    00:00 +17°C° 0 mm 3 mps 748 mmHg 37%
    01:00 +14°C° 0 mm 3 mps 748 mmHg 42%
    02:00 +13°C° 0 mm 3 mps 748 mmHg 50%
    03:00 +14°C° 0 mm 2 mps 748 mmHg 58%
    04:00 +13°C° 0 mm 2 mps 748 mmHg 67%
    05:00 +15°C° 0 mm 2 mps 748 mmHg 64%
    06:00 +16°C° 0 mm 2 mps 748 mmHg 62%
    07:00 +18°C° 0 mm 3 mps 748 mmHg 60%
    08:00 +21°C° 0 mm 3 mps 748 mmHg 54%
    09:00 +25°C° 0 mm 3 mps 748 mmHg 47%
    10:00 +29°C° 0 mm 3 mps 748 mmHg 40%
    11:00 +30°C° 0 mm 3 mps 748 mmHg 37%
    12:00 +31°C° 0 mm 3 mps 748 mmHg 34%
    13:00 +33°C° 0 mm 3 mps 748 mmHg 30%
    14:00 +30°C° 0 mm 4 mps 748 mmHg 37%
    15:00 +28°C° 0 mm 4 mps 748 mmHg 44%
    16:00 +26°C° 0 mm 5 mps 748 mmHg 51%
    17:00 +23°C° 0 mm 4 mps 748 mmHg 56%
    18:00 +22°C° 0 mm 3 mps 748 mmHg 62%
    19:00 +21°C° 0 mm 3 mps 748 mmHg 68%
    20:00 +19°C° 0 mm 3 mps 748 mmHg 70%
    21:00 +18°C° 0 mm 3 mps 749 mmHg 73%
    22:00 +17°C° 0 mm 3 mps 749 mmHg 76%
    23:00 +16°C° 0 mm 3 mps 749 mmHg 76%
    Show more